Weather History for Martinsburg, WV

Change the Weather History Date:

Saturday, April 26, 2014

  Actual Average Record
Temperature  
Mean Temperature 62 °F 56 °F  
Max Temperature 75 °F 68 °F 92 °F (1990)
Min Temperature 49 °F 44 °F 29 °F (2001)
Degree Days  
Heating Degree Days 3 10  
Month to date heating degree days 307 349  
Since 1 July heating degree days 5235 5019  
Cooling Degree Days 0 0  
Month to date cooling degree days 7 0  
Year to date cooling degree days 7 1  
Growing Degree Days 12 (Base 50)    
Moisture  
Dew Point 39 °F    
Average Humidity 46    
Maximum Humidity 66    
Minimum Humidity 25    
Precipitation  
Precipitation 0.01 in 0.11 in 4.00 in (1937)
Month to date precipitation 2.33 2.88  
Year to date precipitation 8.20 11.18  
Sea Level Pressure  
Sea Level Pressure 29.82 in    
Wind  
Wind Speed 13 mph (WNW)    
Max Wind Speed 30 mph    
Max Gust Speed 44 mph    
Visibility 10 miles    
Events Rain    
T = Trace of Precipitation, MM = Missing Value Source: NWS Daily Summary

Daily Weather History Graph

Daily Weather History Graph

Search for Another Location

Airport:

Trip Planner

Search our weather history database for the weather conditions in past years. The results will help you decide how hot, cold, wet, or windy it might be!

Date:

Astronomy

Apr. 26, 2014 Rise Set
Actual Time 6:19 AM EDT 8:00 PM EDT
Civil Twilight 5:50 AM EDT 8:29 PM EDT
Nautical Twilight 5:16 AM EDT 9:03 PM EDT
Astronomical Twilight 4:39 AM EDT 9:40 PM EDT
Moon 4:41 AM EDT (4/26) 5:27 PM EDT (4/26)
Length of Visible Light 14h 38m
Length of Day
13h 41m
Waning Crescent, 8% of the Moon is Illuminated
Apr 26
Waning Crescent
Apr 29
New
May 6
First Quarter
May 14
Full
May 21
Last Quarter

Hourly Weather History & Observations

Time (EDT) Temp. Dew Point Humidity Pressure Visibility Wind Dir Wind Speed Gust Speed Precip Events Conditions
12:53 AM 55.9 °F 45.0 °F 67% 29.78 in 10.0 mi NW 15.0 mph 23.0 mph N/A   Mostly Cloudy
1:53 AM 54.0 °F 37.0 °F 53% 29.81 in 10.0 mi WNW 11.5 mph 32.2 mph N/A   Clear
2:53 AM 52.0 °F 36.0 °F 54% 29.82 in 10.0 mi NW 8.1 mph 21.9 mph N/A   Clear
3:53 AM 52.0 °F 37.0 °F 57% 29.81 in 10.0 mi NW 10.4 mph 21.9 mph N/A   Clear
4:53 AM 51.1 °F 37.0 °F 59% 29.82 in 10.0 mi WNW 11.5 mph - N/A   Clear
5:53 AM 51.1 °F 37.9 °F 61% 29.83 in 10.0 mi WNW 8.1 mph - N/A   Clear
6:53 AM 52.0 °F 39.0 °F 61% 29.85 in 10.0 mi WNW 11.5 mph 23.0 mph N/A   Clear
7:53 AM 55.9 °F 39.0 °F 53% 29.86 in 10.0 mi WNW 10.4 mph - N/A   Clear
8:53 AM 57.0 °F 42.1 °F 57% 29.87 in 10.0 mi Calm Calm - N/A   Clear
9:53 AM 62.1 °F 39.9 °F 44% 29.86 in 10.0 mi Calm Calm - N/A   Clear
10:53 AM 66.9 °F 42.1 °F 40% 29.84 in 10.0 mi WSW 11.5 mph - N/A   Clear
11:53 AM 64.9 °F 42.1 °F 43% 29.81 in 10.0 mi South 9.2 mph - N/A   Overcast
12:53 PM 71.1 °F 41.0 °F 34% 29.79 in 10.0 mi West 19.6 mph 27.6 mph N/A   Mostly Cloudy
1:53 PM 73.0 °F 39.9 °F 30% 29.77 in 10.0 mi West 21.9 mph 31.1 mph N/A   Clear
2:53 PM 73.9 °F 36.0 °F 25% 29.75 in 10.0 mi West 21.9 mph 35.7 mph N/A   Clear
3:53 PM 73.9 °F 36.0 °F 25% 29.75 in 10.0 mi WNW 18.4 mph 34.5 mph N/A   Clear
4:53 PM 73.9 °F 37.9 °F 27% 29.75 in 10.0 mi West 21.9 mph 31.1 mph N/A   Clear
5:53 PM 73.9 °F 39.0 °F 28% 29.76 in 10.0 mi West 18.4 mph 32.2 mph N/A   Scattered Clouds
6:53 PM 72.0 °F 39.9 °F 31% 29.78 in 10.0 mi West 21.9 mph 28.8 mph N/A   Partly Cloudy
7:53 PM 64.0 °F 45.0 °F 50% 29.84 in 10.0 mi NW 16.1 mph - 0.00 in Rain Light Rain
8:53 PM 61.0 °F 46.0 °F 58% 29.88 in 10.0 mi West 17.3 mph - 0.01 in   Overcast
9:53 PM 61.0 °F 44.1 °F 54% 29.89 in 10.0 mi NNW 5.8 mph - N/A   Mostly Cloudy
10:53 PM 59.0 °F 33.1 °F 38% 29.92 in 10.0 mi NNW 15.0 mph 21.9 mph N/A   Clear
11:53 PM 55.9 °F 30.9 °F 39% 29.94 in 10.0 mi NNW 18.4 mph 23.0 mph N/A   Clear